This is the latest recevied weather packets stored in our database for station/object WX6HNX-2. If no packets are shown the sender has not sent any weather packets the latest 10 day(s).
| Time | Temp. | Humidity | Pressure | Rain* | Wind** | Luminosity | Snow |
|---|---|---|---|---|---|---|---|
| 1778181499 | 25.56° C | 56% | 1018.4 hPa | 0 mm | - | - | - |
| 1778181260 | 25.56° C | 53% | 1018.4 hPa | 0 mm | - | - | - |
| 1778180780 | 25.56° C | 56% | 1018.5 hPa | 0 mm | - | - | - |
| 1778180300 | 25.56° C | 55% | 1018.6 hPa | 0 mm | - | - | - |
| 1778179580 | 25° C | 57% | 1018.8 hPa | 0 mm | - | - | - |
| 1778179100 | 25° C | 59% | 1018.9 hPa | 0 mm | - | - | - |
| 1778178860 | 25° C | 60% | 1019 hPa | 0 mm | - | - | - |
| 1778178620 | 24.44° C | 60% | 1019 hPa | 0 mm | - | - | - |
| 1778178140 | 24.44° C | 59% | 1019 hPa | 0 mm | - | - | - |
| 1778177899 | 24.44° C | 57% | 1019 hPa | 0 mm | - | - | - |
| 1778177660 | 24.44° C | 59% | 1019.1 hPa | 0 mm | - | - | - |
| 1778177256 | 23.89° C | 61% | 1019.1 hPa | 0 mm | - | - | - |
| 1778177016 | 23.89° C | 60% | 1019.1 hPa | 0 mm | - | - | - |
| 1778176776 | 23.89° C | 58% | 1019.1 hPa | 0 mm | - | - | - |
| 1778176056 | 23.89° C | 59% | 1019.2 hPa | 0 mm | - | - | - |
| 1778175816 | 23.89° C | 58% | 1019.2 hPa | 0 mm | - | - | - |
| 1778175576 | 23.33° C | 60% | 1019.2 hPa | 0 mm | - | - | - |
| 1778175096 | 23.33° C | 62% | 1019.3 hPa | 0 mm | - | - | - |
| 1778174856 | 23.33° C | 62% | 1019.3 hPa | 0 mm | - | - | - |
| 1778174616 | 23.33° C | 59% | 1019.3 hPa | 0 mm | - | - | - |
| 1778173416 | 22.22° C | 63% | 1018.5 hPa | 0 mm | - | - | - |
| 1778173176 | 22.22° C | 63% | 1018.4 hPa | 0 mm | - | - | - |
| 1778172337 | 21.11° C | 66% | 1018.5 hPa | 0 mm | - | - | - |
| 1778171617 | 20.56° C | 65% | 1018.5 hPa | 0 mm | - | - | - |
| 1778171210 | 20° C | 67% | 1018.6 hPa | 0 mm | - | - | - |
* Rain latest hour (hover to see other rain measurements)
** Current wind speed in m/s (hover to see current wind gust speed)